Powrót do katalogu

STARLINK-32096

AktywnyŁącznośćVLEO
NORAD 59698·PAYLOAD·🇺🇸 United States

Wystrzelony May 8, 2024 z Cape Canaveral Space Force Station

Loading…

Następne Przeloty (najbliższe 24 godziny)

TLE

ŚwieżeSource: CelesTrak SupGP

Epoka: Sep 14, 2026, 22:13 UTC

1 59698C 24086S   26257.92618056  .00038542  00000+0  13963-2 0  2578
2 59698  43.0023  71.1584 0001462 272.7313  91.7544 15.27551542    13

Śledź STARLINK-32096 w czasie rzeczywistym z AllMySat

Download on the App Store